EW7772 Weather Reports


time (UTC)temp
F
wind
direction
speed
knots
gust
knots
rain 1hr
in
rain 24hr
in
rain mn
in
humidity
%
barometer
mb
20260831144506 76 265 0.9 7.0 0.00 0.35 0.35 47 1016.0
20260831143107 74 230 0.0 7.0 0.00 0.35 0.35 49 1016.1
20260831141505 75 313 0.0 5.2 0.00 0.35 0.35 46 1016.1
20260831140007 76 272 0.9 6.1 0.00 0.35 0.35 43 1016.1
20260831134505 77 292 1.7 6.1 0.00 0.35 0.35 43 1016.2
20260831133005 76 223 1.7 7.0 0.00 0.35 0.35 44 1016.4
20260831131605 74 246 0.0 2.6 0.00 0.35 0.35 50 1016.4
20260831130106 75 288 0.9 7.8 0.00 0.35 0.35 48 1016.5
20260831124608 74 311 0.0 9.6 0.00 0.35 0.35 53 1016.7
20260831123059 75 300 1.7 5.2 0.00 0.35 0.35 51 1016.7
20260831121555 74 295 0.9 5.2 0.00 0.35 0.35 52 1016.7
20260831120054 73 296 0.9 5.2 0.00 0.35 0.35 53 1016.8
20260831114557 73 322 0.9 7.0 0.00 0.35 0.35 53 1016.8
20260831113057 73 257 0.9 5.2 0.00 0.35 0.35 55 1016.7
20260831111556 74 248 1.7 5.2 0.00 0.35 0.35 54 1016.8
20260831110050 73 281 0.9 7.0 0.00 0.35 0.35 57 1016.9
20260831104549 73 300 0.0 5.2 0.00 0.35 0.35 57 1016.8
20260831103045 72 267 0.9 7.0 0.00 0.35 0.35 61 1016.8
20260831101545 72 300 1.7 9.6 0.00 0.35 0.35 59 1016.8
20260831100100 71 236 1.7 5.2 0.00 0.35 0.35 64 1016.8
20260831094540 70 157 0.9 4.3 0.00 0.35 0.35 68 1016.8
20260831093042 70 300 0.9 4.3 0.00 0.35 0.35 69 1016.8
20260831091543 69 313 0.0 6.1 0.00 0.35 0.35 71 1016.8
20260831090035 69 267 0.9 6.1 0.00 0.35 0.35 72 1016.8
20260831084530 68 312 0.9 5.2 0.00 0.35 0.35 78 1016.7
20260831083027 66 266 0.0 3.5 0.00 0.35 0.35 82 1016.6
20260831081526 65 255 0.0 1.7 0.00 0.35 0.35 83 1016.7
20260831080027 66 274 0.0 2.6 0.00 0.35 0.35 81 1016.6
20260831074524 66 248 0.0 5.2 0.00 0.35 0.35 80 1016.5
20260831073034 65 286 0.0 3.5 0.00 0.35 0.35 83 1016.4
20260831071522 64 290 0.0 4.3 0.00 0.35 0.35 86 1016.4
20260831070021 64 286 0.0 2.6 0.00 0.35 0.35 87 1016.3
20260831064523 64 298 0.0 2.6 0.00 0.35 0.35 89 1016.1
20260831063024 63 298 0.0 3.5 0.00 0.35 0.35 91 1016.0
20260831061517 62 294 0.0 0.0 0.00 0.35 0.35 94 1015.9
20260831060016 62 294 0.0 1.7 0.00 0.35 0.35 94 1015.8
20260831054515 62 288 0.0 4.3 0.00 0.35 0.35 95 1015.8
20260831053015 61 248 0.0 2.6 0.00 0.35 0.35 95 1015.7
20260831051513 61 304 0.0 0.9 0.00 0.35 0.35 96 1015.6
20260831050012 61 304 0.0 0.0 0.00 0.35 0.35 96 1015.5
20260831044512 61 304 0.0 0.9 0.00 0.35 0.35 96 1015.3
20260831043013 61 304 0.0 0.9 0.00 0.35 0.35 96 1015.2
20260831041508 61 304 0.0 0.0 0.00 0.35 0.35 96 1015.0
20260831040009 61 304 0.0 0.0 0.00 0.35 0.35 95 1014.9
20260831034505 62 304 0.0 0.0 0.00 0.35 0.35 96 1014.7
20260831033006 62 304 0.0 0.0 0.00 0.35 0.35 95 1014.8
20260831031505 62 304 0.0 0.0 0.01 0.35 0.35 96 1014.6
20260831030003 62 304 0.0 0.0 0.01 0.35 0.35 95 1014.4
20260831024503 62 304 0.0 0.0 0.03 0.35 0.35 95 1014.2
20260831023002 62 304 0.0 0.0 0.05 0.35 0.35 95 1014.3
20260831021501 62 304 0.0 0.0 0.06 0.34 0.34 95 1014.0
20260831020001 62 304 0.0 0.0 0.12 0.34 0.34 94 1014.1
20260831014604 62 304 0.0 0.0 0.13 0.31 0.31 94 1014.4
20260831013100 62 304 0.0 0.0 0.30 0.30 0.30 93 1014.6
20260831011559 62 304 0.0 0.0 0.28 0.28 0.28 93 1014.4
20260831010110 63 303 0.0 0.0 0.22 0.22 0.22 92 1014.6
20260831004555 63 288 0.9 7.8 0.18 0.18 0.18 89 1014.7
20260831003103 66 76 0.0 0.0 0.00 0.00 0.00 82 1012.9
20260831001550 66 76 0.0 0.9 0.00 0.00 0.00 82 1012.6
20260831000052 66 76 0.0 1.7 0.00 0.00 0.00 82 1012.5
20260830234554 66 74 0.0 1.7 0.00 0.00 0.00 82 1012.8
20260830233047 66 74 0.0 1.7 0.00 0.00 0.00 82 1012.9
20260830231548 65 78 0.0 1.7 0.00 0.00 0.00 83 1013.0
20260830230047 64 355 0.0 0.0 0.00 0.00 0.00 85 1013.4
20260830224550 63 355 0.0 0.0 0.00 0.00 0.00 85 1013.5
20260830223038 64 355 0.0 0.0 0.00 0.00 0.00 84 1013.6
20260830221539 64 355 0.0 0.0 0.00 0.00 0.00 84 1013.7
20260830220037 64 355 0.0 0.0 0.00 0.00 0.00 85 1013.7
20260830214534 64 355 0.0 0.0 0.00 0.00 0.00 84 1014.0
20260830213033 64 355 0.0 0.0 0.00 0.00 0.00 83 1014.0
20260830211533 64 348 0.0 0.0 0.00 0.00 0.00 84 1013.9
20260830210032 63 286 0.0 0.9 0.00 0.00 0.00 84 1013.9
20260830204535 64 286 0.0 0.0 0.00 0.00 0.00 82 1014.0
20260830203032 65 286 0.0 0.0 0.00 0.00 0.00 82 1014.2
20260830201530 65 286 0.0 0.0 0.00 0.00 0.00 83 1014.1
20260830200031 65 286 0.0 0.0 0.00 0.00 0.00 83 1014.2
20260830194530 66 286 0.0 0.0 0.00 0.00 0.00 82 1014.2
20260830193030 67 286 0.0 0.0 0.00 0.00 0.00 81 1014.3
20260830191529 68 286 0.0 0.0 0.00 0.00 0.00 79 1014.3
20260830190034 68 286 0.0 0.0 0.00 0.00 0.00 78 1014.3
20260830184529 69 286 0.0 0.0 0.00 0.00 0.00 76 1014.2
20260830183028 70 286 0.0 0.0 0.00 0.00 0.00 73 1014.0
20260830181528 71 286 0.0 0.0 0.00 0.00 0.00 72 1014.0
20260830180026 73 286 0.0 0.0 0.00 0.00 0.00 69 1014.0
20260830174530 74 286 0.0 0.0 0.00 0.00 0.00 67 1013.9
20260830173033 74 286 0.0 0.0 0.00 0.00 0.00 65 1013.9
20260830171526 75 286 0.0 0.9 0.00 0.00 0.00 64 1013.9
20260830170025 75 286 0.0 0.0 0.00 0.00 0.00 63 1013.9
20260830164530 76 286 0.0 0.9 0.00 0.00 0.00 63 1013.9
20260830163025 76 286 0.0 0.0 0.00 0.00 0.00 60 1013.9
20260830161523 76 286 0.0 0.9 0.00 0.00 0.00 62 1013.9
20260830160024 77 278 0.0 1.7 0.00 0.00 0.00 60 1014.1
20260830154522 77 294 0.0 1.7 0.00 0.00 0.00 60 1014.1
20260830153039 77 294 0.0 1.7 0.00 0.00 0.00 61 1014.1
20260830151520 76 294 0.0 2.6 0.00 0.00 0.00 63 1014.1
20260830150019 77 248 0.0 2.6 0.00 0.00 0.00 63 1014.2